User: anonymous   Login
Location: Brunembert
(50.7122°N, 1.8935°E)
Time: 20:31:39
(UTC+00:00)
Language:

RESURS DK-1 - Orbit

View from above orbital plane
View from above orbital plane
View from above satellite
View from above satellite

Ground track
Ground track

The orbit data is extracted from the following two-line orbital elements,

1 29228U 06021A   21172.54252132  .00000089  00000-0  14012-4 0  9998
2 29228  69.9359 328.2900 0007623 261.2094  98.8203 15.02705730828189
Epoch (UTC): 21 June 2021 13:01:13
Eccentricity: 0.0007623
inclination: 69.9359°
perigee height: 553 km
apogee height: 564 km
right ascension of ascending node: 328.2900°
argument of perigee: 261.2094°
revolutions per day: 15.02705730
mean anomaly at epoch: 98.8203°
orbit number at epoch: 82818

The dashed part of the orbit path shows where the satellite is in the earth's shadow,  

DLR